Weather History for Jonesville, VA

Change the Weather History Date:

Monday, January 14, 2013

  Actual Average (KLOZ) Record (KLOZ)
Temperature  
Mean Temperature 47 °F 35 °F  
Max Temperature 57 °F 44 °F 69 °F (2007)
Min Temperature 37 °F 26 °F 4 °F (1963)
Degree Days  
Heating Degree Days 18 30  
Month to date heating degree days 416  
Since 1 July heating degree days 2068  
Cooling Degree Days 0 0  
Month to date cooling degree days 0  
Year to date cooling degree days 0  
Moisture  
Dew Point 42 °F    
Average Humidity 94    
Maximum Humidity 100    
Minimum Humidity 87    
Precipitation  
Precipitation 1.08 in 0.11 in 0.97 in (1995)
Month to date precipitation 1.60  
Year to date precipitation 1.60  
Sea Level Pressure  
Sea Level Pressure 30.20 in    
Wind  
Wind Speed 3 mph (NNW)    
Max Wind Speed 8 mph    
Max Gust Speed 16 mph    
Visibility 6 miles    
Events Rain    
T = Trace of Precipitation, MM = Missing Value Source: NWS Daily Summary

Daily Weather History Graph

Daily Weather History Graph

Search for Another Location

Airport:

Trip Planner

Search our weather history database for the weather conditions in past years. The results will help you decide how hot, cold, wet, or windy it might be!

Date:

Astronomy

Jan. 14, 2013 Rise Set
Actual Time 7:44 AM EST 5:39 PM EST
Civil Twilight 7:16 AM EST 6:08 PM EST
Nautical Twilight 6:44 AM EST 6:39 PM EST
Astronomical Twilight 6:13 AM EST 7:11 PM EST
Moon 9:23 AM EST (1/14) 9:17 PM EST (1/14)
Length of Visible Light 10h 51m
Length of Day
9h 55m
Waxing Crescent, 11% of the Moon is Illuminated
Jan 14
Waxing Crescent
Jan 18
First Quarter
Jan 26
Full
Feb 3
Last Quarter
Feb 10
New

Hourly Weather History & Observations

Time (EST) Temp. Windchill Dew Point Humidity Pressure Visibility Wind Dir Wind Speed Gust Speed Precip Events Conditions
12:15 AM 57.2 °F - 57.2 °F 100% 30.07 in 2.5 mi Calm Calm - 0.01 in Rain Light Rain
12:35 AM 57.2 °F - 57.2 °F 100% 30.06 in 1.0 mi NNW 3.5 mph - 0.03 in Rain Light Rain
12:55 AM 55.4 °F - 55.4 °F 100% 30.06 in 10.0 mi WNW 5.8 mph - 0.03 in   Unknown
1:15 AM 55.4 °F - 55.4 °F 100% 30.07 in 6.0 mi WNW 5.8 mph - 0.01 in Rain Light Rain
1:35 AM 53.6 °F - 53.6 °F 100% 30.08 in 2.5 mi WSW 5.8 mph - 0.04 in Rain Rain
2:15 AM 50.0 °F - 50.0 °F 100% 30.11 in 3.0 mi West 8.1 mph - 0.01 in Rain Light Rain
2:35 AM 50.0 °F - 50.0 °F 100% 30.12 in 3.0 mi West 4.6 mph - 0.04 in Rain Light Rain
2:55 AM 48.2 °F - 48.2 °F 100% 30.13 in 6.0 mi WNW 6.9 mph - 0.05 in Rain Light Rain
3:35 AM 46.4 °F - 44.6 °F 93% 30.15 in 2.5 mi Calm Calm - 0.12 in Rain Rain
3:55 AM 44.6 °F - 44.6 °F 100% 30.15 in 5.0 mi Calm Calm - 0.15 in Rain Light Rain
4:15 AM 44.6 °F 43.1 °F 42.8 °F 93% 30.14 in 7.0 mi WNW 3.5 mph - N/A Rain Light Rain
4:35 AM 44.6 °F 43.1 °F 42.8 °F 93% 30.15 in 10.0 mi NW 3.5 mph - N/A   Overcast
4:55 AM 44.6 °F - 42.8 °F 93% 30.14 in 10.0 mi Calm Calm - N/A   Overcast
5:15 AM 44.6 °F - 42.8 °F 93% 30.15 in 10.0 mi Calm Calm - N/A   Mostly Cloudy
5:35 AM 44.6 °F 43.1 °F 42.8 °F 93% 30.15 in 10.0 mi North 3.5 mph - N/A   Mostly Cloudy
5:55 AM 44.6 °F 42.2 °F 41.0 °F 87% 30.15 in 10.0 mi North 4.6 mph - N/A   Mostly Cloudy
6:15 AM 44.6 °F - 41.0 °F 87% 30.16 in 10.0 mi Calm Calm - N/A   Overcast
6:35 AM 44.6 °F 43.1 °F 41.0 °F 87% 30.17 in 10.0 mi North 3.5 mph - N/A   Overcast
6:55 AM 44.6 °F - 41.0 °F 87% 30.19 in 10.0 mi Calm Calm - N/A   Overcast
7:15 AM 44.6 °F - 41.0 °F 87% 30.19 in 10.0 mi Calm Calm - N/A   Overcast
7:35 AM 44.6 °F - 41.0 °F 87% 30.19 in 10.0 mi Calm Calm - N/A   Scattered Clouds
7:55 AM 44.6 °F 43.1 °F 41.0 °F 87% 30.21 in 5.0 mi NNW 3.5 mph - N/A   Partly Cloudy
8:15 AM 42.8 °F 41.1 °F 42.8 °F 100% 30.22 in 3.0 mi NNW 3.5 mph - N/A   Clear
8:55 AM 42.8 °F - 42.8 °F 100% 30.23 in 3.0 mi Calm Calm - N/A   Scattered Clouds
9:15 AM 44.6 °F 42.2 °F 42.8 °F 93% 30.24 in 3.0 mi NNW 4.6 mph - N/A Rain Light Rain
9:55 AM 42.8 °F 41.1 °F 42.8 °F 100% 30.27 in 2.5 mi WNW 3.5 mph - N/A   Clear
10:15 AM 42.8 °F - 42.8 °F 100% 30.26 in 2.0 mi Calm Calm - 0.01 in Rain Light Rain
10:35 AM 42.8 °F - 42.8 °F 100% 30.25 in 8.0 mi Calm Calm - 0.01 in   Mostly Cloudy
10:55 AM 44.6 °F 42.2 °F 42.8 °F 93% 30.24 in 10.0 mi North 4.6 mph - 0.01 in   Mostly Cloudy
11:15 AM 44.6 °F 42.2 °F 41.0 °F 87% 30.22 in 10.0 mi NNE 4.6 mph - N/A   Overcast
11:35 AM 44.6 °F 41.4 °F 41.0 °F 87% 30.22 in 10.0 mi North 5.8 mph - N/A   Overcast
11:55 AM 44.6 °F - 41.0 °F 87% 30.21 in 10.0 mi Calm Calm - N/A   Overcast
12:15 PM 44.6 °F 43.1 °F 41.0 °F 87% 30.18 in 10.0 mi NNE 3.5 mph - N/A   Overcast
12:35 PM 44.6 °F - 41.0 °F 87% 30.18 in 10.0 mi Calm Calm - N/A   Overcast
12:55 PM 44.6 °F 43.1 °F 41.0 °F 87% 30.17 in 10.0 mi NNW 3.5 mph - N/A   Overcast
1:15 PM 44.6 °F - 41.0 °F 87% 30.17 in 10.0 mi Calm Calm - N/A   Overcast
1:35 PM 44.6 °F 41.4 °F 42.8 °F 93% 30.17 in 10.0 mi WNW 5.8 mph - N/A   Overcast
1:55 PM 44.6 °F - 41.0 °F 87% 30.16 in 10.0 mi Calm Calm - N/A   Overcast
2:15 PM 44.6 °F 41.4 °F 42.8 °F 93% 30.16 in 10.0 mi NW 5.8 mph - N/A   Mostly Cloudy
2:35 PM 44.6 °F 42.2 °F 42.8 °F 93% 30.13 in 10.0 mi NE 4.6 mph - N/A   Mostly Cloudy
2:55 PM 44.6 °F - 42.8 °F 93% 30.16 in 10.0 mi Calm Calm - N/A   Overcast
3:15 PM 44.6 °F 43.1 °F 42.8 °F 93% 30.15 in 10.0 mi NNE 3.5 mph - N/A   Overcast
3:35 PM 44.6 °F 42.2 °F 42.8 °F 93% 30.16 in 5.0 mi North 4.6 mph - 0.01 in Rain Light Rain
3:55 PM 44.6 °F - 42.8 °F 93% 30.17 in 4.0 mi Calm Calm - 0.06 in Rain Light Rain
4:15 PM 44.6 °F 42.2 °F 42.8 °F 93% 30.19 in 5.0 mi NW 4.6 mph - 0.01 in Rain Light Rain
4:35 PM 42.8 °F 39.3 °F 41.0 °F 93% 30.21 in 2.5 mi NNW 5.8 mph - 0.06 in Rain Rain
4:55 PM 41.0 °F 36.4 °F 41.0 °F 100% 30.22 in 2.5 mi NW 6.9 mph - 0.13 in Rain Rain
5:15 PM 41.0 °F 37.1 °F 39.2 °F 93% 30.24 in 2.5 mi NNW 5.8 mph - 0.05 in Rain Rain
5:35 PM 39.2 °F 33.6 °F 37.4 °F 93% 30.24 in 5.0 mi NNW 8.1 mph 16.1 mph 0.09 in Rain Rain
5:55 PM 39.2 °F 34.2 °F 37.4 °F 93% 30.26 in 6.0 mi NNW 6.9 mph - 0.12 in Rain Light Rain
6:15 PM 39.2 °F 35.0 °F 37.4 °F 93% 30.29 in 4.0 mi NW 5.8 mph - 0.03 in Rain Light Rain
6:35 PM 37.4 °F - 35.6 °F 93% 30.29 in 3.0 mi Calm Calm - 0.11 in Rain Rain
6:55 PM 37.4 °F - 35.6 °F 93% 30.31 in 4.0 mi Calm Calm - 0.15 in Rain Rain
7:15 PM 37.4 °F - 37.4 °F 100% 30.31 in 4.0 mi Calm Calm - 0.03 in Rain Rain
7:35 PM 37.4 °F 32.8 °F 35.6 °F 93% 30.28 in 3.0 mi NNE 5.8 mph - 0.09 in Rain Rain
7:55 PM 37.4 °F - 35.6 °F 93% 30.30 in 4.0 mi Calm Calm - 0.15 in Rain Rain
8:15 PM 37.4 °F 33.8 °F 35.6 °F 93% 30.34 in 4.0 mi WNW 4.6 mph - 0.04 in Rain Rain
8:35 PM 37.4 °F - 35.6 °F 93% 30.33 in 5.0 mi Calm Calm - 0.07 in Rain Light Rain
8:55 PM 37.4 °F - 35.6 °F 93% 30.29 in 4.0 mi Calm Calm - 0.09 in Rain Light Rain
9:15 PM 37.4 °F - 37.4 °F 100% 30.28 in 5.0 mi Calm Calm - 0.01 in Rain Light Rain
9:35 PM 37.4 °F - 37.4 °F 100% 30.29 in 5.0 mi Calm Calm - 0.03 in Rain Light Rain
9:55 PM 37.4 °F 32.1 °F 37.4 °F 100% 30.27 in 5.0 mi ESE 6.9 mph - 0.05 in Rain Light Rain
10:15 PM 37.4 °F 32.8 °F 37.4 °F 100% 30.26 in 5.0 mi ENE 5.8 mph - 0.01 in Rain Light Rain
10:35 PM 37.4 °F 32.1 °F 37.4 °F 100% 30.24 in 4.0 mi NE 6.9 mph - 0.03 in Rain Light Rain
10:55 PM 37.4 °F 31.4 °F 37.4 °F 100% 30.22 in 9.0 mi NE 8.1 mph - 0.04 in Rain Light Rain
11:15 PM 37.4 °F 32.8 °F 37.4 °F 100% 30.21 in 10.0 mi ENE 5.8 mph - N/A   Overcast
11:35 PM 37.4 °F 32.1 °F 37.4 °F 100% 30.19 in 6.0 mi NE 6.9 mph - N/A Rain Light Rain
11:55 PM 37.4 °F 32.1 °F 37.4 °F 100% 30.19 in 10.0 mi ENE 6.9 mph - 0.01 in Rain Light Rain